When you browse on this site, cookies collect data to enhance your experience and personalize the content and advertising you see.
Visit our Privacy Policy to learn more. By continuing to use the site, you agree to this use of cookies and data.
  • In United Kingdom
  • List of Countries
  • For 7 days
  • Water Temperature
  • Weather Map
  • Weather Widgets
  • user-avatar
    Login

    Hourly Weather Peches'ky

    Today, 19 August, Monday

    Time Temperature Precipitation Wind Pressure Humidity
    00:00 +17°C° 0 mm 2 mps 733 mmHg 72%
    01:00 +17°C° 0 mm 2 mps 733 mmHg 72%
    02:00 +16°C° 0 mm 2 mps 733 mmHg 73%
    03:00 +16°C° 0 mm 2 mps 733 mmHg 73%
    04:00 +16°C° 0 mm 2 mps 733 mmHg 72%
    05:00 +16°C° 0 mm 2 mps 733 mmHg 72%
    06:00 +17°C° 0 mm 2 mps 734 mmHg 69%
    07:00 +19°C° 0 mm 3 mps 734 mmHg 67%
    08:00 +20°C° 0 mm 3 mps 734 mmHg 65%
    09:00 +22°C° 0 mm 3 mps 735 mmHg 60%
    10:00 +25°C° 0 mm 3 mps 735 mmHg 56%
    11:00 +26°C° 0 mm 3 mps 735 mmHg 52%
    12:00 +27°C° 0 mm 3 mps 735 mmHg 50%
    13:00 +28°C° 0 mm 3 mps 735 mmHg 48%
    14:00 +29°C° 0 mm 2 mps 735 mmHg 47%
    15:00 +28°C° 0 mm 2 mps 735 mmHg 48%
    16:00 +28°C° 0 mm 2 mps 735 mmHg 50%
    17:00 +28°C° 0 mm 2 mps 735 mmHg 52%
    18:00 +26°C° 0 mm 2 mps 735 mmHg 55%
    19:00 +24°C° 0 mm 1 mps 735 mmHg 58%
    20:00 +23°C° 0 mm 1 mps 735 mmHg 62%
    21:00 +21°C° 0 mm 2 mps 735 mmHg 63%
    22:00 +20°C° 0 mm 2 mps 735 mmHg 64%
    23:00 +20°C° 0 mm 2 mps 735 mmHg 64%

    Tomorrow, 20 August, Tuesday

    Time Temperature Precipitation Wind Pressure Humidity
    00:00 +19°C° 0 mm 2 mps 735 mmHg 65%
    01:00 +19°C° 0 mm 2 mps 735 mmHg 65%
    02:00 +18°C° 0 mm 2 mps 735 mmHg 65%
    03:00 +18°C° 0 mm 2 mps 735 mmHg 64%
    04:00 +18°C° 0 mm 2 mps 735 mmHg 62%
    05:00 +17°C° 0 mm 2 mps 735 mmHg 61%
    06:00 +19°C° 0 mm 2 mps 736 mmHg 60%
    07:00 +20°C° 0 mm 2 mps 736 mmHg 60%
    08:00 +23°C° 0 mm 2 mps 736 mmHg 59%
    09:00 +25°C° 0 mm 2 mps 737 mmHg 54%
    10:00 +26°C° 0 mm 2 mps 737 mmHg 50%
    11:00 +28°C° 0 mm 2 mps 737 mmHg 45%
    12:00 +29°C° 0 mm 2 mps 737 mmHg 43%
    13:00 +29°C° 0 mm 2 mps 737 mmHg 41%
    14:00 +30°C° 0 mm 1 mps 737 mmHg 40%
    15:00 +30°C° 0 mm 1 mps 737 mmHg 41%
    16:00 +30°C° 0 mm 1 mps 737 mmHg 42%
    17:00 +28°C° 0 mm 0 mps 736 mmHg 44%
    18:00 +28°C° 0 mm 1 mps 736 mmHg 48%
    19:00 +26°C° 0 mm 1 mps 737 mmHg 53%
    20:00 +24°C° 0 mm 1 mps 737 mmHg 57%
    21:00 +23°C° 0 mm 1 mps 737 mmHg 59%
    22:00 +21°C° 0 mm 2 mps 737 mmHg 60%
    23:00 +21°C° 0 mm 2 mps 737 mmHg 62%

    Day after tomorrow, 21 August, Wednesday

    Time Temperature Precipitation Wind Pressure Humidity
    00:00 +20°C° 0 mm 2 mps 737 mmHg 61%
    01:00 +20°C° 0 mm 2 mps 737 mmHg 61%
    02:00 +19°C° 0 mm 2 mps 737 mmHg 60%
    03:00 +19°C° 0 mm 2 mps 737 mmHg 61%
    04:00 +19°C° 0 mm 2 mps 736 mmHg 61%
    05:00 +18°C° 0 mm 2 mps 736 mmHg 62%
    06:00 +20°C° 0 mm 2 mps 736 mmHg 61%
    07:00 +21°C° 0 mm 2 mps 737 mmHg 61%
    08:00 +24°C° 0 mm 2 mps 737 mmHg 61%
    09:00 +25°C° 0 mm 2 mps 737 mmHg 56%
    10:00 +27°C° 0 mm 2 mps 737 mmHg 51%
    11:00 +29°C° 0 mm 2 mps 737 mmHg 46%
    12:00 +29°C° 0 mm 2 mps 737 mmHg 44%
    13:00 +30°C° 0 mm 2 mps 737 mmHg 43%
    14:00 +30°C° 0 mm 2 mps 736 mmHg 41%
    15:00 +30°C° 0 mm 2 mps 736 mmHg 42%
    16:00 +30°C° 0 mm 1 mps 736 mmHg 43%
    17:00 +30°C° 0 mm 1 mps 736 mmHg 44%
    18:00 +28°C° 0 mm 1 mps 736 mmHg 48%
    19:00 +26°C° 0 mm 2 mps 736 mmHg 52%
    20:00 +24°C° 0 mm 2 mps 736 mmHg 55%
    21:00 +23°C° 0 mm 2 mps 736 mmHg 57%
    22:00 +21°C° 0 mm 2 mps 736 mmHg 60%
    23:00 +20°C° 0 mm 2 mps 736 mmHg 62%

    22 August, Thursday

    Time Temperature Precipitation Wind Pressure Humidity
    00:00 +21°C° 0 mm 1 mps 736 mmHg 65%
    01:00 +21°C° 0 mm 1 mps 736 mmHg 67%
    02:00 +20°C° 0 mm 1 mps 736 mmHg 69%
    03:00 +20°C° 0 mm 1 mps 736 mmHg 70%
    04:00 +20°C° 0 mm 1 mps 736 mmHg 71%
    05:00 +18°C° 0 mm 0 mps 736 mmHg 72%
    06:00 +21°C° 0 mm 1 mps 736 mmHg 69%
    07:00 +22°C° 0 mm 1 mps 736 mmHg 65%
    08:00 +24°C° 0 mm 1 mps 737 mmHg 62%
    09:00 +25°C° 0 mm 1 mps 737 mmHg 59%
    10:00 +27°C° 0 mm 2 mps 737 mmHg 55%
    11:00 +28°C° 0 mm 2 mps 737 mmHg 51%
    12:00 +28°C° 0 mm 2 mps 737 mmHg 50%
    13:00 +29°C° 0 mm 2 mps 737 mmHg 49%
    14:00 +29°C° 0 mm 3 mps 737 mmHg 47%
    15:00 +29°C° 0 mm 3 mps 736 mmHg 50%
    16:00 +29°C° 0 mm 2 mps 736 mmHg 52%
    17:00 +29°C° 0 mm 2 mps 736 mmHg 54%
    18:00 +27°C° 0 mm 2 mps 736 mmHg 59%
    19:00 +25°C° 0 mm 2 mps 736 mmHg 65%
    20:00 +23°C° 0 mm 2 mps 737 mmHg 70%
    21:00 +21°C° 0.1 mm 2 mps 737 mmHg 76%
    22:00 +21°C° 0.1 mm 2 mps 737 mmHg 82%
    23:00 +20°C° 0.1 mm 2 mps 737 mmHg 87%

    23 August, Friday

    Time Temperature Precipitation Wind Pressure Humidity
    00:00 +19°C° 0 mm 2 mps 737 mmHg 89%
    01:00 +19°C° 0 mm 2 mps 737 mmHg 92%
    02:00 +19°C° 0 mm 2 mps 736 mmHg 94%
    03:00 +19°C° 0 mm 2 mps 737 mmHg 95%
    04:00 +19°C° 0 mm 2 mps 737 mmHg 96%
    05:00 +18°C° 0 mm 2 mps 737 mmHg 98%
    06:00 +19°C° 0 mm 3 mps 737 mmHg 96%
    07:00 +20°C° 0 mm 3 mps 737 mmHg 94%
    08:00 +20°C° 0 mm 3 mps 738 mmHg 92%
    09:00 +21°C° 0 mm 3 mps 738 mmHg 88%
    10:00 +22°C° 0 mm 3 mps 738 mmHg 84%
    11:00 +24°C° 0 mm 3 mps 738 mmHg 80%
    12:00 +25°C° 0 mm 4 mps 738 mmHg 77%
    13:00 +25°C° 0 mm 4 mps 738 mmHg 74%
    14:00 +26°C° 0 mm 4 mps 738 mmHg 71%
    15:00 +26°C° 0 mm 4 mps 738 mmHg 71%
    16:00 +26°C° 0 mm 4 mps 738 mmHg 72%
    17:00 +25°C° 0 mm 4 mps 738 mmHg 72%
    18:00 +23°C° 0 mm 4 mps 738 mmHg 77%
    19:00 +22°C° 0 mm 4 mps 738 mmHg 81%
    20:00 +20°C° 0 mm 3 mps 738 mmHg 85%
    21:00 +20°C° 0 mm 3 mps 738 mmHg 87%
    22:00 +19°C° 0 mm 3 mps 738 mmHg 89%
    23:00 +19°C° 0 mm 3 mps 739 mmHg 92%

    24 August, Saturday

    Time Temperature Precipitation Wind Pressure Humidity
    00:00 +18°C° 0 mm 3 mps 739 mmHg 91%
    01:00 +18°C° 0 mm 3 mps 739 mmHg 90%
    02:00 +17°C° 0 mm 3 mps 739 mmHg 89%
    03:00 +17°C° 0 mm 3 mps 739 mmHg 91%
    04:00 +16°C° 0 mm 3 mps 739 mmHg 93%
    05:00 +14°C° 0 mm 3 mps 739 mmHg 95%
    06:00 +16°C° 0 mm 3 mps 739 mmHg 90%
    07:00 +17°C° 0 mm 4 mps 739 mmHg 84%
    08:00 +18°C° 0 mm 4 mps 740 mmHg 79%
    09:00 +20°C° 0 mm 4 mps 740 mmHg 73%
    10:00 +21°C° 0 mm 5 mps 740 mmHg 66%
    11:00 +23°C° 0 mm 5 mps 740 mmHg 59%
    12:00 +23°C° 0 mm 5 mps 740 mmHg 57%
    13:00 +25°C° 0 mm 5 mps 739 mmHg 54%
    14:00 +26°C° 0 mm 5 mps 739 mmHg 52%
    15:00 +25°C° 0 mm 4 mps 739 mmHg 53%
    16:00 +25°C° 0 mm 4 mps 739 mmHg 55%
    17:00 +25°C° 0 mm 4 mps 739 mmHg 57%
    18:00 +22°C° 0 mm 4 mps 739 mmHg 59%
    19:00 +21°C° 0 mm 4 mps 739 mmHg 62%
    20:00 +19°C° 0 mm 4 mps 738 mmHg 64%
    21:00 +19°C° 0 mm 4 mps 739 mmHg 63%
    22:00 +18°C° 0 mm 4 mps 739 mmHg 62%
    23:00 +17°C° 0 mm 4 mps 739 mmHg 60%
    Show more